Regional Weather Roundup
Issued by NWS Upton, NY

Current Version | Previous Version | Graphics & Text | Print | Product List | Glossary Off
Versions: 1 2 3 4 5 6 7 8 9 10 11 12 13 14 15 16 17 18 19 20 21 22 23 24 25 26 27 28 29 30 31 32 33 34 35 36 37 38 39 40 41 42 43 44 45 46 47 48 49 50

000
ASUS41 KOKX 242205
RWROKX

REGIONAL WEATHER ROUNDUP
NATIONAL WEATHER SERVICE NEW YORK NY
500 PM EST WED DEC 24 2014

NOTE: "FAIR" INDICATES FEW OR NO CLOUDS BELOW 12,000 FEET WITH NO
SIGNIFICANT WEATHER AND/OR OBSTRUCTIONS TO VISIBILITY.

NYZ071-072-176-178-NJZ106-104-242300-
NEW YORK CITY METRO AREA


CITY           SKY/WX    TMP DP  RH WIND       PRES   REMARKS
CENTRAL PARK   LGT RAIN  47  47 100 E3        29.71F FOG
LAGUARDIA APRT RAIN      45  45 100 NE9       29.69F VSB 1/2
KENNEDY INTL   LGT RAIN  56  54  93 S16       29.70F VSB 1/4
NEWARK/LIBERTY RAIN      49  48  97 NE7       29.68F VSB 1
BRNX BOT. GARD   N/A     46  46 100 SE2       29.71F
TETERBORO      LGT RAIN  48  48 100 CALM      29.67F FOG
$$

NYZ177-179-078>081-242300-
LONG ISLAND NEW YORK

CITY           SKY/WX    TMP DP  RH WIND       PRES   REMARKS
FARMINGDALE    LGT RAIN  57  56  96 S9        29.71S VSB 1/4
ISLIP          FOG       57  56  96 S12G22    29.70F VSB 1/4
SHIRLEY        LGT RAIN  61  60  97 S17G24    29.73S FOG
WESTHAMPTON    FOG       60  59  96 S12G20    29.74S VSB 3/4
MONTAUK POINT    N/A     57  55  93 S8        29.75F
$$

NYZ052-065-067-242300-
HUDSON VALLEY

CITY           SKY/WX    TMP DP  RH WIND       PRES   REMARKS
WHITE PLAINS   RAIN      49  48  97 E7        29.68F VSB 1/4
NEWBURGH       DRIZZLE   46  46 100 E6        29.69F FOG
MONTGOMERY     RAIN      46  45  96 NE5       29.66F FOG
POUGHKEEPSIE   LGT RAIN  47  45  93 CALM      29.69F FOG
ALBANY         LGT RAIN  46  43  89 S7        29.68F
$$

NJZ001-105-106-008-010-013-015-019>022-104-242300-
NEW JERSEY

CITY           SKY/WX    TMP DP  RH WIND       PRES   REMARKS
NEWARK/LIBERTY RAIN      49  48  97 NE7       29.68F VSB 1
TETERBORO      LGT RAIN  48  48 100 CALM      29.67F FOG
CALDWELL       LGT RAIN  47  47 100 E5        29.67F FOG
MORRISTOWN     LGT RAIN  52  50  93 NE6       29.68F FOG
SOMERVILLE     LGT RAIN  50  47  89 N5        29.64F FOG
SUSSEX         LGT RAIN  47  46  97 NE3       29.66F FOG
ANDOVER        NOT AVBL
TRENTON        LGT RAIN  53  52  96 CALM      29.64F FOG
MILLVILLE      LGT RAIN  61  60  97 VRB5      29.66F
ATLANTIC CITY  LGT RAIN  60  59  96 S21G32    29.67F FOG
WRIGHTSTOWN    LGT RAIN  63  63 100 S15G25    29.64S
TOMS RIVER     CLOUDY    61  61 100 S16G24    29.68F
BELMAR         CLOUDY    61  55  82 S12G17    29.68F
$$

PAZ047>061-062-071-242300-
EASTERN PENNSYLVANIA

CITY           SKY/WX    TMP DP  RH WIND       PRES   REMARKS
PHILADELPHIA   LGT RAIN  63  61  93 SW14      29.65S
ALLENTOWN      LGT RAIN  50  48  93 E3        29.64F FOG
SCRANTON       RAIN      52  49  89 NE7       29.60F FOG
$$

CTZ002-004>006-009-010-012-RIZ004-006-007-MAZ004-011-015-242300-
SOUTHERN NEW ENGLAND
 IN CT

CITY           SKY/WX    TMP DP  RH WIND       PRES   REMARKS
BRADLEY INTL   LGT RAIN  43  41  93 N7        29.75F FOG
HARTFORD       LGT RAIN  43  41  93 VRB5      29.75F FOG
DANBURY        RAIN      46  43  89 NE6       29.72F FOG
WTRBRY/OXFORD  NOT AVBL
BRIDGEPORT     RAIN      49  48  97 NE12      29.72F FOG
MERIDEN        CLOUDY    44  41  89 N6        29.75F FOG
NEW HAVEN      LGT RAIN  50  45  83 E13G23    29.72F
CHESTER        CLOUDY    52  52 100 CALM      29.74F FOG
GROTON         LGT RAIN  52  52 100 SE10      29.73F FOG
WILLIMANTIC    LGT RAIN  48  46  93 N3        29.76F FOG

 IN RI

CITY           SKY/WX    TMP DP  RH WIND       PRES   REMARKS
PROVIDENCE     RAIN      48  47  96 NE3       29.78F VSB 1
BLOCK ISLAND   CLOUDY    57  55  94 S18       29.75F
WESTERLY       LGT RAIN  53  53 100 SE9       29.75F

 IN MA

CITY           SKY/WX    TMP DP  RH WIND       PRES   REMARKS
BOSTON         RAIN      46  46 100 NE7       29.80F VSB 1/4
WORCESTER      LGT RAIN  39  39 100 NE7       29.77F VSB 1/4 WCI  34
WESTFIELD      LGT RAIN  42  40  92 N8        29.76F FOG
PROVINCETOWN   CLOUDY    54  52  94 SE12G17   29.80F
NANTUCKET      LGT RAIN  53  52  96 SE17      29.82F FOG
$$

ANZ330-335-338-340-345-350-353-355-242300-
COASTAL MARINE OBSERVATIONS


STATION/POSITION TIME  SKY/WX   TEMP    WIND        PRES    VSBY  WAVE
                                AIR SEA DIR/SP/G                  HT/PER
                 (UTC)          (F)     (DEG/KT/KT) (MB)    (MI)  (FT/S)
NY HARB ENTRANCE 2100            51 46  180/  8/ 10 1006.9          4/ 7
4S FIRE IS       2200               47                N/A           5/ 9
20S FIRE ISLAND  2100            57 50              1007.0          5/ 7
23SW MTP         2200                                 N/A           5/10
HUDSON CANYON    2100            60 55  180/ 16/ 17 1008.0          5/ 8
EXECUTION ROCKS  2200            44 42   60/ 12/ 16   N/A
WESTERN LI SOUND 2100            45      60/ 14/ 16   N/A           2/ 4
CENTRAL LI SOUND 2100            44 44   60/ 12/ 14   N/A           2/ 4
EASTERN LI SOUND NOT AVBL
ROBBINS REEF     NOT AVBL
$$


>>>>>>>>>>>>>>>>>>>>>>>>>>>> KEY <<<<<<<<<<<<<<<<<<<<<<<<<<<
>                                                          <
>     SKY/WX - SKY CONDITION/PRESENT WEATHER               <
>     TMP    - TEMPERATURE IN FAHRENHEIT                   <
>     DP     - DEWPOINT IN FAHRENHEIT                      <
>     RH     - RELATIVE HUMIDITY IN PERCENT                <
>     WIND   - DIRECTION AND SPEED IN MPH                  <
>     PRES   - MEAN SEA LEVEL PRESSURE IN INCHES OF HG     <
>     WCI    - WIND CHILL INDEX                            <
>     VSB    - VISIBILITY IN MILES                         <
>     HX     - HEAT INDEX                                  <
>     TC     - TEMPERATURE IN CELSIUS                      <
>     VRB    - VARIABLE WIND DIRECTION                     <
>                                                          <
>>>>>>>>>>>>>>>>>>>>>>>>>>>> KEY <<<<<<<<<<<<<<<<<<<<<<<<<<<




USA.gov is the U.S. government's official web portal to all federal, state and local government web resources and services.